Weather History for Fairfield, IL

Change the Weather History Date:

Saturday, September 22, 2012

  Actual Average (KMVN) Record (KMVN)
Temperature  
Mean Temperature 56 °F -  
Max Temperature 69 °F 75 °F 91 °F (2005)
Min Temperature 42 °F 50 °F 35 °F (1999)
Degree Days  
Heating Degree Days 10    
Growing Degree Days 6 (Base 50)    
Moisture  
Dew Point 44 °F    
Average Humidity 63    
Maximum Humidity 94    
Minimum Humidity 19    
Precipitation  
Precipitation 0.00 in - - ()
Sea Level Pressure  
Sea Level Pressure 30.04 in    
Wind  
Wind Speed 4 mph (NW)    
Max Wind Speed 13 mph    
Max Gust Speed 22 mph    
Visibility 9 miles    
Events      
Averages and records for this station are not official NWS values.
T = Trace of Precipitation, MM = Missing Value Source: NWS Daily Summary

Daily Weather History Graph

Daily Weather History Graph

Search for Another Location

Airport:

Trip Planner

Search our weather history database for the weather conditions in past years. The results will help you decide how hot, cold, wet, or windy it might be!

Date:

Astronomy

Sep. 22, 2012 Rise Set
Actual Time 6:41 AM CDT 6:49 PM CDT
Civil Twilight 6:15 AM CDT 7:16 PM CDT
Nautical Twilight 5:44 AM CDT 7:47 PM CDT
Astronomical Twilight 5:13 AM CDT 8:18 PM CDT
Moon 1:54 PM CDT (9/22) 11:59 PM CDT (9/22)
Length of Visible Light 13h 00m
Length of Day
12h 08m
Waxing Crescent, 49% of the Moon is Illuminated
Sep 22
Waxing Crescent
Sep 22
First Quarter
Sep 29
Full
Oct 8
Last Quarter
Oct 15
New

Hourly Weather History & Observations

Time (CDT) Temp. Dew Point Humidity Pressure Visibility Wind Dir Wind Speed Gust Speed Precip Events Conditions
12:15 AM 66.2 °F 55.4 °F 68% 29.83 in 10.0 mi Calm Calm - N/A   Clear
12:35 AM 64.4 °F 55.4 °F 73% 29.84 in 10.0 mi WNW 3.5 mph - N/A   Clear
12:55 AM 62.6 °F 57.2 °F 82% 29.85 in 10.0 mi WNW 3.5 mph - N/A   Clear
1:15 AM 62.6 °F 57.2 °F 82% 29.86 in 10.0 mi WNW 3.5 mph - N/A   Clear
1:35 AM 60.8 °F 55.4 °F 82% 29.87 in 10.0 mi WNW 3.5 mph - N/A   Clear
1:55 AM 60.8 °F 55.4 °F 82% 29.88 in 10.0 mi NW 4.6 mph - N/A   Clear
2:15 AM 59.0 °F 55.4 °F 88% 29.89 in 10.0 mi NW 6.9 mph - N/A   Clear
2:35 AM 57.2 °F 53.6 °F 88% 29.89 in 10.0 mi NW 3.5 mph - N/A   Clear
2:55 AM 55.4 °F 53.6 °F 94% 29.90 in 10.0 mi NW 3.5 mph - N/A   Clear
3:15 AM 55.4 °F 53.6 °F 94% 29.91 in 10.0 mi Calm Calm - N/A   Scattered Clouds
3:35 AM 55.4 °F 51.8 °F 88% 29.91 in 7.0 mi WNW 3.5 mph - N/A   Scattered Clouds
3:55 AM 55.4 °F 51.8 °F 88% 29.91 in 7.0 mi Calm Calm - N/A   Clear
4:15 AM 53.6 °F 51.8 °F 94% 29.92 in 7.0 mi Calm Calm - N/A   Clear
4:35 AM 53.6 °F 51.8 °F 94% 29.93 in 7.0 mi Calm Calm - N/A   Clear
4:55 AM 51.8 °F 50.0 °F 94% 29.93 in 7.0 mi Calm Calm - N/A   Clear
5:15 AM 53.6 °F 51.8 °F 94% 29.94 in 7.0 mi Calm Calm - N/A   Clear
5:35 AM 53.6 °F 51.8 °F 94% 29.94 in 7.0 mi Calm Calm - N/A   Clear
5:55 AM 53.6 °F 51.8 °F 94% 29.95 in 7.0 mi Calm Calm - N/A   Clear
6:15 AM 51.8 °F 48.2 °F 88% 29.95 in 4.0 mi Calm Calm - N/A   Clear
6:35 AM 51.8 °F 48.2 °F 88% 29.96 in 4.0 mi Calm Calm - N/A   Clear
6:55 AM 51.8 °F 48.2 °F 88% 29.97 in 3.0 mi Calm Calm - N/A   Clear
7:15 AM 51.8 °F 48.2 °F 88% 29.98 in 1.8 mi Calm Calm - N/A   Clear
7:35 AM 51.8 °F 50.0 °F 94% 29.98 in 3.0 mi SSW 3.5 mph - N/A   Clear
7:55 AM 53.6 °F 51.8 °F 94% 29.98 in 4.0 mi SW 4.6 mph - N/A   Clear
8:15 AM 55.4 °F 51.8 °F 88% 29.99 in 10.0 mi Calm Calm - N/A   Clear
8:35 AM 57.2 °F 53.6 °F 88% 29.99 in 10.0 mi WSW 5.8 mph - N/A   Clear
8:55 AM 59.0 °F 53.6 °F 82% 30.00 in 10.0 mi WSW 5.8 mph - N/A   Clear
9:15 AM 60.8 °F 55.4 °F 82% 30.00 in 10.0 mi West 4.6 mph - N/A   Clear
9:35 AM 64.4 °F 53.6 °F 68% 30.01 in 10.0 mi West 5.8 mph - N/A   Clear
9:55 AM 66.2 °F 51.8 °F 60% 30.01 in 10.0 mi West 6.9 mph - N/A   Clear
10:15 AM 68.0 °F 51.8 °F 56% 30.01 in 10.0 mi West 8.1 mph - N/A   Clear
10:35 AM 69.8 °F 50.0 °F 49% 30.02 in 10.0 mi WNW 5.8 mph - N/A   Clear
10:55 AM 69.8 °F 48.2 °F 46% 30.02 in 10.0 mi WNW 10.4 mph 18.4 mph N/A   Clear
11:15 AM 69.8 °F 50.0 °F 49% 30.02 in 10.0 mi NW 6.9 mph 16.1 mph N/A   Clear
11:35 AM 69.8 °F 48.2 °F 46% 30.03 in 10.0 mi West 11.5 mph 20.7 mph N/A   Clear
11:55 AM 69.8 °F 48.2 °F 46% 30.04 in 10.0 mi NW 9.2 mph 16.1 mph N/A   Clear
12:15 PM 69.8 °F 44.6 °F 40% 30.05 in 10.0 mi NW 11.5 mph 19.6 mph N/A   Clear
12:35 PM 68.0 °F 42.8 °F 40% 30.06 in 10.0 mi NNW 12.7 mph 21.9 mph N/A   Clear
12:55 PM 69.8 °F 42.8 °F 38% 30.07 in 10.0 mi NNW 8.1 mph 18.4 mph N/A   Clear
1:15 PM 69.8 °F 41.0 °F 35% 30.07 in 10.0 mi NNW 9.2 mph 16.1 mph N/A   Clear
1:35 PM 68.0 °F 37.4 °F 33% 30.07 in 10.0 mi NNW 9.2 mph 16.1 mph N/A   Clear
1:55 PM 69.8 °F 37.4 °F 31% 30.07 in 10.0 mi NW 8.1 mph 16.1 mph N/A   Clear
2:15 PM 69.8 °F 30.2 °F 23% 30.07 in 10.0 mi North 8.1 mph 19.6 mph N/A   Clear
2:35 PM 68.0 °F 26.6 °F 21% 30.08 in 10.0 mi NW 11.5 mph 17.3 mph N/A   Clear
2:55 PM 68.0 °F 24.8 °F 20% 30.09 in 10.0 mi NW 10.4 mph 19.6 mph N/A   Clear
3:15 PM 68.0 °F 28.4 °F 23% 30.09 in 10.0 mi NW 10.4 mph 16.1 mph N/A   Clear
3:35 PM 68.0 °F 30.2 °F 24% 30.10 in 10.0 mi North 9.2 mph - N/A   Clear
3:55 PM 68.0 °F 30.2 °F 24% 30.10 in 10.0 mi NNW 10.4 mph 18.4 mph N/A   Clear
4:15 PM 66.2 °F 26.6 °F 23% 30.11 in 10.0 mi NW 8.1 mph - N/A   Clear
4:35 PM 66.2 °F 23.0 °F 19% 30.11 in 10.0 mi NNW 10.4 mph - N/A   Clear
4:55 PM 66.2 °F 28.4 °F 24% 30.11 in 10.0 mi NNW 6.9 mph - N/A   Clear
5:15 PM 66.2 °F 28.4 °F 24% 30.12 in 10.0 mi NNW 8.1 mph - N/A   Clear
5:35 PM 64.4 °F 28.4 °F 26% 30.13 in 10.0 mi North 8.1 mph - N/A   Clear
5:55 PM 64.4 °F 28.4 °F 26% 30.13 in 10.0 mi NNW 8.1 mph - N/A   Clear
6:15 PM 62.6 °F 30.2 °F 30% 30.14 in 10.0 mi NNW 5.8 mph - N/A   Clear
6:35 PM 62.6 °F 33.8 °F 34% 30.14 in 10.0 mi Calm Calm - N/A   Clear
6:55 PM 59.0 °F 35.6 °F 42% 30.15 in 10.0 mi Calm Calm - N/A   Clear
7:15 PM 57.2 °F 37.4 °F 48% 30.15 in 10.0 mi Calm Calm - N/A   Clear
7:35 PM 55.4 °F 37.4 °F 51% 30.15 in 10.0 mi Calm Calm - N/A   Clear
7:55 PM 55.4 °F 35.6 °F 47% 30.16 in 10.0 mi Calm Calm - N/A   Clear
8:15 PM 51.8 °F 42.8 °F 71% 30.17 in 10.0 mi Calm Calm - N/A   Clear
8:35 PM 51.8 °F 39.2 °F 62% 30.17 in 10.0 mi Calm Calm - N/A   Clear
8:55 PM 48.2 °F 42.8 °F 82% 30.17 in 10.0 mi NNW 3.5 mph - N/A   Clear
9:15 PM 51.8 °F 39.2 °F 62% 30.18 in 10.0 mi NNW 3.5 mph - N/A   Clear
9:35 PM 48.2 °F 39.2 °F 71% 30.19 in 10.0 mi Calm Calm - N/A   Clear
9:55 PM 48.2 °F 39.2 °F 71% 30.20 in 10.0 mi Calm Calm - N/A   Clear
10:15 PM 46.4 °F 41.0 °F 81% 30.20 in 10.0 mi Calm Calm - N/A   Clear
10:35 PM 44.6 °F 41.0 °F 87% 30.21 in 10.0 mi Calm Calm - N/A   Clear
10:55 PM 46.4 °F 41.0 °F 81% 30.21 in 10.0 mi Calm Calm - N/A   Clear
11:15 PM 44.6 °F 39.2 °F 81% 30.21 in 10.0 mi Calm Calm - N/A   Clear
11:35 PM 42.8 °F 39.2 °F 87% 30.21 in 10.0 mi Calm Calm - N/A   Clear
11:55 PM 42.8 °F 39.2 °F 87% 30.21 in 10.0 mi Calm Calm - N/A   Clear